Location: Unspecified
(26.2700°N, 0.0000°E)
Time: 15:56:10
(UTC+00:00)

CZ-6A DEB - Visible Passes

Search period start: 04 April 2026 00:00
Search period end: 14 April 2026 00:00
Orbit: 785 x 830 km, 89.1° (Epoch: 29 March)

Date Brightness Start Highest point End Pass type
(mag) Time Alt. Az. Time Alt. Az. Time Alt. Az.
6 Apr ? 05:19:50 10° SE 05:24:06 26° E 05:28:22 10° NNE visible
6 Apr ? 19:25:50 10° WNW 19:27:37 12° WNW 19:29:25 10° W visible
7 Apr ? 04:56:41 10° ESE 04:59:39 15° E 05:02:37 10° NE visible
7 Apr ? 18:59:25 10° NW 19:03:12 20° W 19:07:00 10° SW visible
8 Apr ? 18:34:00 10° NNW 18:38:43 33° W 18:43:28 10° SW visible
11 Apr ? 04:57:41 10° SE 05:01:54 25° E 05:06:07 10° NNE visible
11 Apr ? 19:03:31 10° WNW 19:05:26 12° WNW 19:07:22 10° W visible
12 Apr ? 04:34:33 10° ESE 04:37:27 15° E 04:40:21 10° NE visible
